#timestamp,LO_Frequency,Hit 
1504742415.3,286046975.7,N
1504742435.1,286046975.1,N
1504742455.9,286046973.8,N
1504742475.7,286046975.2,N
1504742495.5,286046978.7,N
1504742515.4,286046977.8,N
1504742535.2,286046984.7,N
1504742555.0,286046978.7,N
1504742555.9,286046978.7,N
1504742575.8,286046976.1,N
1504742595.6,286046978.4,N
1504742615.4,286046978.8,N
1504742635.2,286046976.4,N
1504742655.1,286046976.6,P
1504742656.0,286046976.6,P
1504742675.8,286046990.1,P
1504742695.7,286046986.9,N
1504742715.5,286046986.2,N
1504742735.3,286046985.9,N
1504742755.1,286046987.0,N
1504742775.9,286046991.0,N
1504742795.7,286046994.3,N
1504742815.5,286046994.3,N
1504742835.4,286046994.6,N
1504742855.2,286046989.5,N
1504742875.0,286046990.0,N
1504742875.9,286046990.0,N
1504742895.8,286046987.5,N
1504742915.6,286046985.6,N
1504742935.4,286046983.8,P
1504742955.3,286047001.0,N
1504742975.1,286047003.9,N
1504742995.8,286047001.8,N
1504743015.7,286047002.5,N
1504743035.5,286047004.8,N
1504743055.3,286047008.4,N
1504743075.2,286047014.0,N
1504743095.9,286047016.7,N
1504743115.7,286047021.4,N
1504743135.5,286047025.4,N
1504743155.4,286047033.2,N
1504743175.2,286047032.3,N
1504743195.0,286047036.4,N
1504743195.9,286047036.4,N
1504743215.8,286047033.7,N
1504743235.6,286047035.7,N
1504743255.4,286047035.6,N
1504743275.3,286047032.0,N
1504743295.1,286047032.2,N
1504743296.0,286047032.2,N
1504743315.8,286047032.1,N
1504743335.7,286047036.0,N
1504743355.5,286047036.3,N
1504743375.3,286047036.2,N
1504743395.2,286047034.9,N
1504743415.9,286047034.9,N
1504743435.7,286047037.4,N
1504743455.5,286047035.5,N
1504743475.4,286047034.9,N
1504743495.2,286047037.7,N
1504743515.0,286047035.1,N
1504743515.9,286047035.1,N
1504743535.8,286047036.7,P
1504743555.6,286047011.3,N
1504743575.4,286047009.8,N
1504743595.3,286047009.6,N
1504743615.1,286047007.0,N
1504743635.8,286047005.7,N
1504743655.7,286047005.9,N
1504743675.5,286047003.5,N
1504743695.3,286047003.0,N
1504743715.2,286047007.4,N
1504743735.9,286047010.6,N
1504743755.7,286047008.7,N
1504743775.6,286047007.8,N
1504743795.4,286047008.4,N
1504743815.2,286047008.6,N
1504743835.1,286047008.5,N
1504743836.0,286047008.5,N
1504743855.8,286047009.2,N
1504743875.6,286047008.0,N
1504743895.4,286047009.6,N
1504743915.3,286047011.9,N
1504743935.1,286047012.4,N
1504743955.8,286047010.7,N
1504743975.7,286047007.4,N
1504743995.5,286047008.3,N
1504744015.3,286047010.0,N
1504744035.2,286047011.8,N
1504744055.9,286047015.6,N
1504744075.7,286047008.8,N
1504744095.6,286047003.6,N
1504744115.4,286047001.8,N
1504744135.2,286047001.8,N
1504744155.1,286047001.2,N
1504744156.0,286047001.2,N
1504744175.8,286046995.6,N
1504744195.6,286046996.1,N
1504744215.4,286046994.3,N
1504744235.3,286046988.7,N
1504744255.1,286046990.9,N
1504744275.8,286046988.9,N
1504744295.7,286046988.9,N
1504744315.5,286046984.5,N
1504744335.3,286046985.3,N
1504744355.2,286046986.2,N
1504744375.9,286046981.2,N
1504744395.7,286046978.5,N
1504744415.6,286046979.5,N
1504744435.4,286046980.3,N
1504744455.2,286046978.1,N
1504744475.1,286046977.3,N
1504744476.0,286046977.3,N
1504744495.8,286046979.7,N
1504744515.6,286046983.3,N
1504744535.5,286046982.4,N
1504744555.3,286046981.0,N
1504744575.1,286046983.1,N
1504744595.8,286046983.1,N
1504744615.7,286046982.1,N
1504744635.5,286046983.2,N
1504744655.3,286046980.4,N
1504744675.2,286046978.8,N
1504744695.9,286046980.7,N
1504744715.7,286046981.7,N
1504744735.6,286046981.2,P
1504744755.4,286046995.2,P
1504744775.2,286046993.5,N
1504744795.1,286046994.5,N
1504744796.0,286046994.5,N
1504744815.8,286046994.1,N
1504744835.6,286046997.3,N
1504744855.5,286046995.0,N
1504744875.3,286046993.8,N
1504744895.1,286046991.3,N
1504744915.9,286046988.1,N
1504744935.7,286046988.0,N
1504744955.5,286046988.1,N
1504744975.3,286046989.6,N
1504744995.2,286046992.1,N
1504745015.0,286046995.3,N
1504745015.9,286046995.3,N
1504745035.7,286046999.7,N
1504745055.6,286047007.1,N
1504745075.4,286047005.1,N
1504745095.2,286047006.7,N
1504745115.1,286047011.5,N
1504745116.0,286047011.5,N
1504745135.8,286047011.6,N
1504745155.6,286047011.1,N
1504745175.5,286047014.1,N
1504745195.3,286047016.7,N
1504745215.1,286047017.6,N
1504745235.9,286047020.6,N
1504745255.7,286047020.0,N
1504745275.5,286047017.4,N
1504745295.3,286047025.0,N
1504745315.2,286047025.9,N
1504745335.0,286047022.4,N
1504745335.9,286047022.4,N
1504745355.7,286047020.6,N
1504745375.6,286047024.9,N
1504745395.4,286047022.6,N
1504745415.2,286047024.5,N
1504745435.1,286047023.9,N
1504745436.0,286047023.9,N
1504745455.8,286047024.4,N
1504745475.6,286047022.2,N
1504745495.5,286047023.5,N
1504745515.3,286047020.6,N
1504745535.1,286047022.5,N
1504745555.9,286047023.4,N
1504745575.7,286047023.3,P
1504745595.5,286047004.9,N
1504745615.4,286047009.1,N
1504745635.2,286047008.0,N
1504745655.0,286047009.8,N
1504745655.9,286047009.8,N
1504745675.8,286047006.3,N
1504745695.6,286047003.6,N
1504745715.4,286047001.7,N
1504745735.3,286047003.7,N
1504745755.1,286047002.5,N
1504745756.0,286047002.5,N
1504745775.8,286047004.2,N
1504745795.6,286047005.7,N
1504745815.5,286047006.0,N
1504745835.3,286047001.6,N
1504745855.1,286047000.5,N
1504745875.9,286047001.6,N
1504745895.7,286047003.5,N
1504745915.5,286047007.1,N
1504745935.4,286047008.0,N
1504745955.2,286047007.2,N
1504745975.0,286047006.0,N
1504745975.9,286047006.0,N
1504745995.8,286047005.7,N
